RH
99 101 100 103 108 107 102 100 101 101 100 101 100 95 90 83 75 70 68 72 82 90 96 100 101 101 99 98 98 97 97 96 93 90 83 74 67 62 56 51 47 44 43 41 39 38 38 36 35 34 34 39 43 40 37 36 34 30 28 27 26 26 27
96 100 101 104 108 108 104 101 101 101 99 97 93 86 80 75 72 73 78 84 92 97 100 101 100 99 98 98 99 98 96 95 92 87 81 74 68 63 58 53 48 44 41 40 40 39 38 37 35 34 37 40 40 37 36 35 31 28 28 27 27 28 27
90 93 95 96 97 96 94 93 92 92 91 88 84 80 77 77 79 83 88 93 98 100 100 100 97 96 98 99 98 96 94 92 89 85 80 75 70 66 60 53 48 44 41 41 41 40 40 38 36 37 39 39 37 35 34 31 29 29 28 27 28 28 26
88 86 86 84 83 82 81 81 82 84 86 86 87 88 89 91 92 95 97 99 100 100 99 97 97 98 100 99 97 95 93 91 88 84 81 78 72 66 59 53 48 45 43 42 41 40 39 38 37 39 40 37 34 33 31 29 29 29 28 29 28 26 24
89 86 84 81 81 81 82 84 86 88 91 93 96 98 98 99 100 100 101 101 100 100 99 99 100 101 100 99 99 96 95 93 90 86 83 77 70 63 57 53 50 47 45 42 41 39 37 36 38 40 38 35 32 31 29 29 28 29 30 29 27 24 22
95 93 92 91 91 93 94 95 96 96 97 98 99 100 100 101 101 101 101 100 100 100 100 100 101 101 100 100 100 98 97 96 93 89 82 74 67 61 56 54 53 50 46 43 39 36 35 37 38 37 34 32 31 30 29 29 28 29 30 28 25 23 20
99 98 98 98 98 99 100 100 100 99 99 100 100 100 100 100 100 100 100 100 100 101 101 101 101 101 100 99 99 100 99 98 93 88 80 71 64 60 58 57 54 50 46 41 37 34 35 37 36 34 32 31 30 29 28 29 30 30 28 25 23 22 21
100 99 99 100 100 100 100 101 100 100 100 100 101 100 100 100 100 99 100 100 101 101 101 100 100 100 100 100 100 100 99 96 90 82 74 67 64 62 60 58 53 48 43 37 35 35 36 35 32 32 32 30 29 29 30 30 30 28 26 23 22 22 22
101 101 100 100 100 100 101 101 100 100 100 101 101 100 99 100 100 100 100 101 101 101 101 101 99 99 100 100 99 98 95 89 81 75 70 68 66 63 59 55 49 43 38 35 35 35 33 32 32 31 30 29 30 31 32 30 27 25 24 23 23 22 20
101 101 101 101 101 100 100 101 100 100 100 100 101 101 100 100 100 100 101 101 101 100 100 101 100 99 99 98 96 92 87 80 74 71 68 66 64 60 55 49 42 37 35 35 34 33 32 32 31 30 30 32 33 33 31 28 25 24 24 23 22 21 17
102 102 101 101 101 100 100 100 100 100 100 100 101 101 101 100 100 101 101 100 100 100 100 101 101 101 100 97 91 85 79 75 70 67 65 62 58 53 47 41 37 35 35 34 33 33 32 31 31 31 33 35 33 30 27 25 24 23 23 22 20 17 14
101 103 102 100 100 101 101 100 100 100 100 100 101 101 100 100 100 100 100 100 100 100 100 101 101 101 100 95 88 81 74 69 65 62 60 56 50 44 38 35 35 34 34 34 34 33 32 32 34 35 36 34 30 27 25 24 23 22 21 19 16 13 11
102 103 103 101 101 101 101 101 101 101 101 100 101 101 100 100 100 100 100 100 100 101 100 101 100 98 95 89 81 74 68 63 59 55 50 44 39 36 34 34 34 34 34 34 34 34 35 37 38 36 33 29 26 25 24 23 22 20 18 15 12 11 11
103 101 102 103 104 102 101 102 101 101 101 101 101 100 100 100 100 100 100 100 100 99 98 96 92 86 81 76 71 66 62 56 50 44 39 36 34 33 34 35 35 35 35 35 35 38 41 40 37 33 29 26 24 23 22 21 19 17 13 11 11 10 9
101 100 101 102 102 101 100 102 102 101 102 101 101 101 100 99 99 98 98 97 95 91 87 83 77 71 68 65 60 56 50 45 40 36 34 33 34 36 37 37 37 37 37 39 40 41 40 36 32 29 26 24 22 21 20 18 15 13 11 10 9 8 6
100 100 100 100 101 101 101 102 101 100 100 99 98 98 95 94 94 92 89 87 82 77 73 68 64 59 55 51 47 42 39 36 35 34 36 38 39 40 39 38 39 41 42 42 40 36 33 30 27 26 24 22 20 18 16 13 12 11 10 8 6 6 5
101 101 101 101 100 99 98 98 96 94 92 91 89 87 85 83 82 79 76 72 68 63 59 54 49 45 41 38 36 35 35 36 38 40 41 42 41 41 42 44 45 44 41 37 34 30 28 26 24 23 22 19 17 14 12 11 10 9 7 6 5 5 5
100 98 96 95 94 93 91 89 86 84 83 81 79 76 73 70 68 65 61 57 52 48 44 41 39 37 36 36 37 38 41 42 43 43 42 42 44 46 48 48 44 40 35 31 28 26 24 23 21 20 17 14 13 12 10 9 8 6 5 5 5 5 5
95 95 94 93 92 90 89 88 88 86 82 77 71 66 61 57 54 50 46 43 41 40 40 40 40 40 42 44 46 47 46 45 44 44 46 47 48 48 46 42 37 33 30 26 24 23 21 19 17 15 13 12 11 10 8 6 5 5 5 5 5 5 6
97 98 98 98 99 98 97 96 93 85 77 68 59 54 50 47 45 44 43 43 44 44 46 47 49 51 53 53 51 48 47 47 48 49 50 47 44 41 37 34 30 28 25 23 22 20 17 15 13 12 11 10 8 7 5 5 5 5 5 5 5 5 6
101 101 102 103 103 100 93 86 77 68 61 56 52 51 51 49 49 48 47 48 50 52 56 58 59 59 55 52 50 49 50 51 50 48 44 40 36 33 30 27 25 24 22 19 17 15 13 12 11 10 8 7 5 5 5 5 5 5 5 5 5 6 6
101 98 95 90 84 78 71 67 65 63 63 63 61 60 58 56 54 54 55 59 62 63 64 62 58 55 52 52 53 52 51 49 44 40 35 31 29 27 25 24 22 19 17 15 13 12 12 10 8 6 5 5 4 5 5 5 5 5 5 6 6 6 7
89 83 80 79 79 81 82 84 85 83 79 74 68 64 63 64 65 67 67 67 65 62 58 55 54 54 54 54 53 50 46 41 35 31 28 26 25 23 21 19 16 14 13 12 11 10 8 6 5 4 4 4 4 4 5 5 5 5 6 6 7 7 7
87 87 90 95 100 103 104 103 98 91 84 78 75 75 76 76 72 68 64 60 56 54 54 54 54 53 52 50 46 41 36 31 28 26 24 23 21 18 16 14 13 12 11 10 8 6 5 5 4 4 4 4 4 5 5 5 6 6 6 7 7 7 8
98 99 101 103 104 104 103 102 99 96 93 89 86 81 75 68 62 57 55 55 54 54 53 50 48 46 44 40 36 31 28 26 24 23 20 18 15 13 13 12 10 9 7 6 5 5 4 5 4 4 5 5 5 5 5 5 6 6 6 7 7 8 8
99 99 100 101 101 102 103 103 101 96 89 81 72 65 59 57 56 56 56 55 53 49 45 42 39 37 34 31 28 26 24 22 20 17 15 14 13 11 10 8 6 6 5 5 5 5 5 5 5 5 5 5 5 5 5 5 6 6 7 7 8 8 9
99 99 99 99 98 95 92 88 81 73 66 60 58 57 57 58 58 56 54 49 44 40 36 34 32 30 28 25 23 21 19 16 15 14 12 11 9 7 6 5 5 5 5 5 5 5 5 5 5 5 5 5 5 6 5 6 6 6 7 7 8 9 9
99 96 92 86 79 72 68 64 61 59 57 57 59 60 60 59 57 52 46 40 34 31 29 28 27 25 22 20 17 16 15 14 12 11 9 7 6 5 5 5 5 5 5 5 6 5 5 5 5 5 5 5 5 6 6 6 7 7 7 7 8 9 9
81 75 69 64 61 59 58 58 57 56 56 58 60 60 59 56 50 43 37 32 29 27 25 23 21 18 16 15 15 14 12 10 8 7 6 6 5 5 5 5 5 5 5 5 5 5 5 5 5 5 6 6 6 6 6 7 7 7 7 8 8 9 9
62 61 60 59 58 55 54 53 53 54 56 58 57 54 49 44 39 34 30 26 24 21 19 18 17 16 15 13 11 10 8 6 6 6 5 5 5 5 5 6 5 6 6 6 6 6 6 6 6 6 6 6 7 7 7 7 8 8 8 8 8 9 9
61 59 56 53 51 50 51 53 54 54 53 50 45 41 37 33 29 26 23 20 18 17 17 16 15 13 11 9 7 6 6 6 5 5 5 6 6 6 6 6 6 6 6 6 6 6 6 6 7 7 7 7 8 8 8 9 9 9 9 9 9 9 9
57 57 56 56 57 57 56 54 50 46 42 38 34 31 28 24 22 20 19 18 17 16 14 12 10 8 7 6 6 6 5 6 6 6 6 6 6 6 6 6 6 6 6 7 7 7 7 7 7 7 8 8 8 8 9 9 9 9 9 9 10 10 10
69 70 70 66 62 56 49 43 38 35 32 29 27 24 21 20 20 19 18 16 13 11 10 8 7 7 6 6 6 6 6 6 6 6 6 6 6 6 6 7 7 7 7 7 7 7 8 8 8 8 8 8 8 9 9 9 9 10 10 10 10 10 10
77 70 62 55 48 42 37 33 30 28 26 24 23 21 21 20 19 16 13 10 8 8 7 7 6 6 6 6 6 6 6 6 6 6 7 7 7 7 7 8 8 8 8 8 8 8 8 8 8 9 9 9 9 9 9 9 9 10 10 10 10 10 11
57 50 45 41 37 33 30 27 25 25 25 24 22 20 18 16 13 10 8 7 7 7 7 7 6 6 6 6 6 6 6 7 7 7 7 8 8 8 8 8 8 9 9 8 8 8 8 8 9 9 9 10 10 10 10 10 10 10 10 10 10 11 11
42 40 38 35 31 28 26 25 26 26 24 21 17 14 12 10 9 8 7 7 7 7 7 7 7 7 7 7 7 7 7 8 8 8 9 9 9 9 9 9 9 9 9 9 9 9 9 9 9 10 10 10 10 10 10 11 11 11 11 11 11 11 11
Wind_Speed
113 113 113 113 113 113 113 113 113 113 114 114 114 114 115 115 116 116 116 116 116 117 119 121 123 124 125 125 126 128 129 130 131 132 133 134 135 136 137 137 137 136 134 135 138 139 139 139 138 137 137 137 138 139 140 139 138 137 136 135 135 134 134
116 115 115 115 115 115 115 115 115 115 116 117 117 117 117 118 117 117 117 118 119 121 123 125 126 127 127 128 129 131 132 133 134 135 136 138 138 139 140 141 141 140 139 139 140 141 141 141 141 140 139 139 140 140 140 140 140 139 138 137 137 136 136
119 119 118 118 118 118 118 118 118 118 119 119 119 119 119 119 118 119 120 121 123 125 127 128 128 128 129 131 133 134 135 136 137 138 139 140 141 142 143 144 145 144 143 142 142 142 143 144 144 143 143 142 142 141 140 140 140 140 139 139 139 138 139
122 121 121 121 121 121 121 121 121 121 120 120 120 119 119 120 120 121 123 125 127 128 129 129 130 131 133 134 135 136 137 138 139 140 140 142 143 144 145 147 147 148 147 146 145 144 145 145 146 146 146 145 144 142 141 140 140 141 141 141 141 141 141
122 122 122 122 122 122 122 122 121 121 121 120 120 120 121 122 124 125 127 128 129 130 130 131 132 135 136 137 138 139 140 141 141 142 143 144 146 147 148 149 150 150 150 149 148 147 147 147 148 148 148 146 145 143 142 141 141 141 142 143 143 144 144
121 121 121 120 121 121 121 121 121 121 121 121 122 122 124 126 127 128 129 130 130 131 132 134 136 138 139 139 140 141 141 142 144 145 146 147 148 149 150 151 152 152 152 152 151 149 149 149 149 149 148 146 145 143 143 143 143 143 144 144 145 146 147
121 120 120 120 121 122 122 123 123 123 123 124 125 126 127 129 129 130 130 131 133 134 136 138 140 140 141 141 142 142 143 145 147 148 149 150 151 151 152 153 154 154 154 154 153 152 151 151 150 149 148 146 145 145 145 145 146 146 146 147 148 149 150
123 123 123 123 124 125 125 126 126 126 127 128 129 130 130 130 130 131 133 134 136 138 140 142 142 142 142 143 144 145 146 148 149 150 151 152 153 153 154 155 155 156 156 156 155 153 152 152 150 148 147 146 146 146 147 147 148 149 150 150 151 152 152
127 127 128 128 129 129 130 130 130 131 131 132 132 132 131 132 133 134 136 138 140 142 143 144 143 143 144 145 147 148 149 150 151 151 152 153 154 155 156 157 158 158 158 157 156 154 153 151 149 148 148 148 148 149 149 150 150 151 153 154 154 154 152
130 130 131 132 133 134 134 134 135 135 135 134 134 134 135 136 137 138 140 141 143 143 144 144 145 146 148 149 149 150 151 151 152 153 153 154 155 156 158 159 160 159 159 158 156 154 151 150 149 149 149 150 151 152 152 153 154 155 156 156 156 154 149
131 131 132 133 134 136 136 137 137 137 137 137 138 138 139 140 141 142 142 143 143 143 143 145 147 149 150 151 151 152 152 153 153 154 155 155 157 158 160 160 160 159 158 157 154 152 151 150 151 151 152 153 154 154 155 156 157 158 158 157 155 150 143
128 129 130 131 132 134 135 136 137 138 138 139 140 140 140 141 141 141 141 142 142 143 144 145 146 147 149 150 152 153 154 155 155 156 156 158 159 160 160 159 158 157 155 153 152 152 152 153 154 154 155 156 157 157 158 159 160 160 158 155 150 143 137
124 125 127 127 129 130 132 133 134 135 135 136 136 137 137 137 138 138 139 140 141 142 143 143 144 145 147 150 152 155 156 157 158 158 159 159 159 159 158 157 156 154 152 151 152 153 155 156 157 158 158 159 160 160 161 162 161 159 155 149 143 136 130
117 119 121 122 123 125 126 128 129 130 130 131 132 133 134 134 135 136 137 138 139 141 142 143 144 146 148 150 153 156 158 159 160 160 159 158 157 157 155 154 152 152 152 153 154 155 157 158 159 161 162 162 163 163 163 162 159 155 149 142 135 129 123
110 112 114 115 117 119 121 123 124 125 126 128 129 131 132 133 134 135 136 137 139 140 142 144 146 148 150 152 154 157 158 159 159 158 157 156 154 153 152 152 152 154 155 156 156 158 159 161 162 163 165 165 165 164 161 158 153 148 141 134 127 121 116
103 105 107 110 112 114 116 119 121 122 124 125 127 128 129 130 131 133 134 136 139 141 143 146 148 150 152 153 154 155 156 156 156 155 153 152 151 151 152 154 155 157 158 159 160 161 162 163 165 166 167 166 164 161 156 151 145 139 133 126 120 114 109
99 101 103 106 108 111 113 116 118 119 121 122 124 125 127 128 130 132 134 137 140 143 145 148 150 151 151 152 152 152 152 151 151 151 151 151 152 153 155 157 159 160 161 161 162 163 164 166 167 167 166 163 159 155 149 143 137 131 124 118 113 108 104
97 99 101 103 105 108 110 112 114 116 118 120 122 124 126 128 131 133 136 139 142 144 146 147 148 149 149 149 149 148 148 149 149 151 152 154 155 156 158 160 162 163 163 164 165 166 167 167 166 164 161 157 152 146 141 134 128 122 116 111 107 103 100
96 98 100 103 105 107 110 112 114 117 119 122 124 126 129 131 133 135 138 140 142 143 145 146 146 146 147 147 148 148 150 151 153 154 155 156 158 159 161 162 164 165 166 167 168 168 166 164 161 157 153 148 143 137 131 125 119 114 109 105 102 98 95
98 101 103 106 108 111 113 115 117 120 123 126 128 130 131 133 135 136 138 139 141 142 143 144 145 147 148 149 151 152 154 155 156 157 158 159 160 162 163 165 166 168 169 169 167 165 162 158 154 149 144 138 133 127 122 117 112 108 104 100 96 94 91
102 104 107 109 112 114 117 119 122 124 127 129 131 132 134 135 136 137 138 139 140 142 144 146 148 150 152 154 155 156 157 158 159 160 161 162 163 164 166 167 168 168 167 165 163 159 154 150 145 140 134 128 123 118 113 109 106 102 98 95 92 89 87
105 108 110 113 116 119 121 123 126 128 130 132 133 134 135 136 137 138 139 140 143 145 147 150 152 153 155 157 158 159 160 161 161 162 163 164 165 167 167 167 166 164 161 158 154 150 145 140 135 130 124 119 114 110 106 103 99 96 93 90 88 86 84
110 112 114 117 120 123 125 128 129 131 133 134 135 136 137 138 139 141 142 145 147 149 151 153 154 156 157 159 161 162 162 163 163 164 165 166 167 166 165 162 160 156 152 148 144 140 135 130 125 120 115 111 107 103 100 96 93 90 88 86 84 83 82
115 116 118 121 124 127 129 131 133 135 136 137 138 139 141 142 143 145 147 149 150 152 153 154 156 158 159 161 163 163 164 165 165 166 166 165 164 161 158 155 151 147 142 137 133 129 125 121 117 112 107 104 100 97 94 91 88 85 83 82 81 80 79
118 120 122 124 126 129 132 134 136 138 140 141 142 143 145 146 148 149 151 152 153 154 156 157 158 160 162 163 164 165 165 165 165 163 162 159 156 153 149 145 140 135 131 127 123 119 116 113 109 105 101 97 94 92 89 87 84 81 80 79 77 77 77
121 123 125 127 129 131 134 137 139 141 143 145 146 147 148 149 151 152 153 155 156 157 158 160 161 163 164 165 165 164 163 161 159 157 154 151 147 142 138 133 129 125 121 117 114 110 107 104 102 99 96 92 89 87 85 83 80 78 77 76 75 74 75
124 127 129 130 133 135 137 139 142 144 146 147 148 149 151 152 154 155 156 158 159 160 161 162 164 164 164 163 161 158 156 153 151 148 144 140 135 131 127 123 119 115 112 108 105 102 100 98 96 93 90 88 85 83 81 79 77 76 75 73 72 72 73
129 131 133 134 136 138 140 142 144 146 147 148 150 152 154 156 157 159 160 161 162 163 163 163 162 161 159 156 153 150 147 143 140 136 132 129 125 121 117 114 110 107 104 101 98 96 94 93 90 88 85 83 81 80 78 75 74 73 73 71 70 70 72
132 135 137 138 140 141 142 144 146 147 149 151 153 155 157 159 161 162 163 163 163 162 160 158 156 153 150 147 143 139 136 132 129 125 122 119 116 112 109 105 102 99 97 94 92 91 89 87 85 83 80 78 77 76 74 72 71 71 70 69 68 68 69
136 138 140 141 143 144 145 147 148 150 152 154 157 159 161 162 162 162 161 160 158 155 153 150 147 144 141 137 132 128 125 122 119 116 113 110 107 104 101 98 95 93 91 89 87 86 84 82 80 78 76 74 73 72 71 69 68 68 68 67 66 66 67
140 142 143 145 146 148 149 150 151 153 155 158 160 161 160 159 157 155 154 152 150 147 144 140 137 134 131 127 123 119 116 113 110 108 105 102 100 97 95 92 90 87 86 84 83 81 79 77 76 74 72 70 70 69 67 66 66 66 66 65 65 65 65
144 146 148 150 151 153 154 155 156 157 157 157 157 155 153 151 149 147 145 143 140 137 133 130 127 124 121 118 114 111 108 105 102 101 98 96 94 92 89 87 85 83 81 79 78 76 75 73 71 70 69 68 66 66 65 64 64 64 64 64 64 64 63
150 152 154 156 157 158 159 158 156 154 152 151 150 148 145 142 140 138 137 134 131 127 124 121 118 116 113 110 106 103 101 98 96 94 93 91 89 87 84 82 80 79 77 75 73 72 71 69 68 67 66 65 64 64 63 62 61 61 62 62 62 62 61
154 156 158 159 159 158 156 153 150 147 146 145 143 140 136 133 131 130 128 125 121 118 116 113 111 108 105 102 99 97 95 93 91 89 87 86 84 82 80 77 76 74 73 71 70 69 67 66 65 64 64 63 62 62 61 60 59 59 60 60 60 60 60
154 155 155 154 153 151 149 146 143 141 140 138 136 132 128 126 125 123 121 117 114 111 109 106 104 101 99 96 94 92 90 88 86 84 82 80 79 78 76 73 72 70 69 68 67 66 65 64 63 62 61 61 60 60 59 58 58 58 58 59 59 58 58
148 147 147 147 146 144 142 139 136 135 134 132 128 125 122 120 118 116 114 111 108 104 102 100 98 95 93 91 89 87 85 83 81 79 77 76 75 74 72 70 69 67 67 66 65 64 63 62 61 60 60 59 58 57 57 56 56 56 57 57 57 57 56
Wind_Direction
267 268 268 269 270 270 271 272 272 273 274 274 275 275 276 277 277 278 278 279 279 279 279 280 280 280 281 281 282 283 284 285 286 287 287 288 289 289 290 291 291 291 291 292 292 293 293 294 295 296 296 297 297 298 298 298 298 298 297 297 296 296 296
268 269 269 269 270 270 271 272 272 273 273 274 274 275 276 277 277 278 278 278 278 278 279 279 280 280 280 281 282 283 284 285 286 287 288 288 289 290 290 291 291 292 292 292 293 293 294 295 296 296 296 297 297 298 298 298 297 297 296 296 296 296 296
268 269 269 270 270 270 271 272 273 273 274 274 275 276 276 277 277 277 277 277 278 278 279 279 279 280 280 281 283 284 285 286 287 287 288 288 289 290 291 291 291 292 292 293 293 294 295 296 296 296 297 297 297 297 297 297 297 296 296 296 296 296 297
267 268 269 269 270 271 271 272 273 274 274 275 275 275 276 276 276 276 277 277 278 279 279 279 280 280 281 282 283 284 285 286 287 287 288 288 289 290 291 291 292 292 293 293 294 295 295 296 296 297 297 297 297 296 296 296 296 296 296 296 296 297 297
267 268 268 269 270 271 271 272 273 273 273 273 274 274 274 275 276 277 278 278 279 279 279 279 280 281 282 283 284 285 286 287 287 287 288 289 289 290 291 291 292 293 293 294 295 295 296 296 296 296 297 297 296 296 296 296 295 296 296 296 296 297 297
267 268 268 269 269 270 271 271 272 272 272 272 272 273 274 276 277 278 278 278 279 279 279 280 281 282 282 283 284 285 286 287 287 288 288 289 290 290 291 292 292 293 294 294 295 296 296 296 296 296 296 296 296 296 295 295 296 296 296 296 297 297 298
267 267 267 268 268 269 270 270 270 271 271 271 272 273 275 276 277 277 278 278 278 279 279 280 281 282 283 284 285 285 286 287 287 288 289 289 290 291 291 292 292 293 294 295 295 295 296 296 296 296 295 295 295 295 295 295 296 296 296 297 297 298 299
266 266 266 267 267 268 269 269 270 270 271 272 273 274 275 275 276 276 277 277 278 279 280 281 282 282 283 284 285 286 286 287 287 288 289 290 290 291 291 292 292 293 294 295 295 295 295 295 295 295 295 295 295 295 295 296 296 296 297 297 298 299 299
265 266 266 267 267 268 269 269 270 270 271 272 273 274 274 274 275 276 276 277 278 279 280 281 282 282 283 284 285 286 286 287 287 288 289 290 290 291 291 292 293 294 294 295 295 295 295 295 295 295 295 295 295 295 296 296 296 297 297 298 298 299 299
266 266 266 267 267 268 268 269 270 271 271 272 272 273 273 274 275 275 276 277 278 280 280 281 282 282 283 284 285 286 286 287 288 288 289 290 290 291 292 292 293 294 294 294 295 295 295 294 295 295 295 295 295 296 296 296 297 297 298 298 299 299 298
267 267 267 267 268 268 269 269 270 270 271 271 272 273 273 274 275 276 277 278 279 280 280 281 282 283 284 285 286 286 286 287 288 288 289 290 290 291 292 292 293 293 294 294 294 294 294 294 295 295 295 295 296 296 296 297 297 298 298 298 298 298 297
267 268 268 268 268 269 269 270 270 270 271 272 272 273 274 275 276 277 278 279 279 280 281 282 283 284 285 286 286 287 287 287 288 288 289 290 290 291 292 292 293 293 293 293 294 294 294 295 295 295 295 296 296 296 297 297 297 298 298 298 297 296 295
268 268 269 269 269 270 270 270 271 272 272 273 274 274 275 276 277 278 279 280 280 281 282 283 284 285 285 286 286 287 287 288 288 289 289 290 291 291 292 292 292 292 293 293 294 294 295 295 295 295 295 295 296 296 297 297 297 297 297 297 296 295 293
270 270 271 271 271 272 272 273 273 274 275 275 276 276 277 278 279 279 280 281 281 282 283 283 284 284 285 286 286 287 287 288 289 289 290 291 291 291 292 292 292 293 293 293 294 294 295 295 295 295 295 296 296 296 297 297 297 296 296 295 294 292 291
273 274 274 274 274 275 275 275 276 276 277 277 278 278 279 279 280 281 281 282 282 282 283 283 284 284 285 285 286 287 288 289 289 290 291 291 291 291 292 292 293 293 293 294 294 294 295 295 295 295 295 296 296 296 297 296 296 295 294 293 292 290 289
276 276 276 276 276 277 277 277 277 278 278 279 279 280 280 281 281 282 282 282 282 283 283 283 284 284 285 286 286 287 288 289 290 290 290 291 291 292 293 293 293 293 294 294 294 294 294 294 295 295 295 296 296 296 296 295 294 293 292 291 290 289 287
277 277 277 277 278 278 278 279 279 280 280 280 281 281 281 282 282 282 282 283 283 283 284 284 285 285 286 287 288 288 289 289 290 290 291 291 292 293 293 293 293 293 293 294 294 294 294 294 295 295 295 295 295 295 294 293 292 292 291 290 288 287 285
278 278 279 279 280 280 280 281 281 281 282 282 282 282 282 282 283 283 283 284 284 285 285 286 287 288 288 289 289 289 289 290 290 291 291 292 292 292 293 293 293 293 293 293 293 294 294 294 295 295 295 294 294 293 293 292 291 290 289 288 287 285 284
281 281 281 282 282 282 282 282 283 283 283 283 283 283 283 284 284 284 285 285 286 287 288 288 289 289 289 289 290 290 290 291 291 291 292 292 292 292 293 293 293 293 293 293 294 294 294 294 294 294 294 293 292 292 291 291 290 289 288 286 285 283 282
282 282 283 283 283 283 283 283 283 283 284 284 284 284 285 285 286 286 287 287 288 289 289 289 290 290 290 290 290 291 291 291 291 291 292 292 292 293 293 293 293 293 293 294 294 294 294 294 293 293 292 292 291 291 290 289 288 287 286 284 283 281 280
282 282 283 283 283 283 283 284 284 284 285 285 285 286 286 287 287 288 288 289 289 289 289 290 290 290 290 290 290 290 290 291 291 292 292 292 292 292 293 293 293 293 294 294 294 294 293 293 292 292 291 291 290 289 289 288 287 285 284 283 281 280 278
282 283 283 283 284 284 284 285 285 285 285 286 286 287 287 288 288 289 289 289 289 289 289 289 289 290 290 290 290 291 291 292 292 292 292 292 292 293 293 293 293 293 293 293 293 293 292 291 291 291 290 290 289 288 287 286 285 284 282 281 280 278 276
283 283 283 283 284 284 284 285 285 285 286 286 287 287 288 288 289 289 289 289 289 289 289 289 289 290 290 290 291 291 292 292 292 292 292 293 293 293 293 293 293 293 293 292 292 291 291 291 290 290 290 289 288 287 285 284 283 282 281 279 278 277 275
282 282 283 283 283 284 284 285 285 286 286 287 287 288 288 288 289 289 289 289 289 289 289 289 290 290 291 291 291 291 292 292 292 293 293 293 293 293 293 293 292 292 292 291 291 291 290 290 290 289 288 287 286 285 284 283 281 280 279 278 277 275 274
282 282 283 283 283 284 284 285 286 286 287 287 288 288 288 289 289 289 289 289 289 290 290 290 290 291 291 291 291 292 292 293 293 293 293 293 293 293 292 292 292 291 291 291 290 290 290 289 289 288 287 286 285 284 283 281 280 279 278 276 275 274 273
283 283 283 284 284 284 285 285 286 286 287 287 288 288 289 289 289 289 290 290 290 291 291 291 291 291 291 291 292 292 293 293 293 293 293 292 292 292 292 291 291 291 291 290 290 289 289 288 287 287 286 285 284 283 282 280 279 278 276 275 274 272 271
283 284 284 284 285 285 285 286 286 287 287 288 289 289 290 290 290 291 291 291 291 291 291 291 291 291 292 292 292 293 293 293 292 292 292 292 292 291 291 291 291 290 290 290 289 288 288 287 286 286 285 284 283 282 281 279 278 276 275 273 272 271 269
284 285 285 285 286 286 286 286 287 287 288 289 290 290 291 291 291 291 291 291 291 291 291 292 292 292 292 292 293 293 292 292 292 292 292 291 291 291 291 291 290 290 289 289 288 287 286 286 285 285 284 284 283 281 280 279 277 276 274 273 271 269 268
285 285 286 286 286 287 287 287 288 289 290 291 291 291 291 292 292 292 292 291 291 292 292 292 292 292 292 292 292 292 292 292 292 292 292 291 291 291 290 290 290 289 289 288 287 286 286 285 285 284 284 283 282 281 279 278 276 275 273 272 270 268 267
286 286 287 287 288 288 289 289 290 291 291 291 291 292 292 292 292 292 292 292 292 292 292 293 293 293 293 293 293 292 292 292 292 292 291 291 291 290 290 290 289 289 288 287 286 285 285 285 284 284 283 282 281 280 279 277 275 274 272 271 269 267 265
288 288 289 289 290 290 291 291 291 291 292 292 292 292 292 292 292 292 292 292 292 292 292 293 293 293 293 293 293 293 292 292 292 291 291 291 290 290 289 289 288 287 287 286 285 285 285 284 284 283 283 281 280 279 278 276 274 273 271 270 268 266 264
291 291 291 291 291 292 292 292 292 292 292 292 292 292 292 292 292 292 292 292 292 293 293 293 293 293 293 293 293 293 292 292 292 291 291 290 290 289 289 288 287 286 286 285 285 285 284 284 284 283 282 281 279 278 277 275 273 272 271 269 268 266 265
292 292 292 292 292 292 292 292 292 292 292 292 292 292 292 293 293 293 292 292 293 293 294 294 294 293 293 293 293 293 293 292 291 291 290 290 289 289 288 287 287 286 286 285 285 285 284 284 284 283 282 280 279 278 276 275 273 272 271 269 268 266 265
292 292 292 292 292 292 292 293 293 293 293 293 293 293 293 294 294 293 293 294 294 295 295 294 294 294 294 294 294 293 293 292 291 291 290 290 289 289 288 288 287 287 287 286 286 285 284 284 283 282 281 280 279 277 276 275 273 271 270 268 267 266 264
292 292 292 292 292 293 293 293 294 294 294 293 293 294 295 295 295 294 295 295 295 295 295 295 295 294 294 294 294 293 293 292 292 291 291 290 290 289 289 289 288 288 287 287 286 285 284 283 282 281 280 278 277 277 276 275 273 271 270 268 267 265 264
292 292 292 293 293 293 293 294 294 295 294 294 295 296 296 296 296 295 295 295 296 296 295 295 295 295 294 294 294 293 293 292 292 292 291 291 291 290 290 290 289 289 288 287 286 285 284 283 281 280 279 277 276 275 275 274 272 271 269 268 267 266 264